Вернуться в каталог

STARLINK-3559

АктивенСвязьVLEO
NORAD 51860·PAYLOAD·🇺🇸 United States

Запущен Mar 3, 2022 с Cape Canaveral Space Force Station

Loading…

Ближайшие Пролёты (ближайшие 24 часа)

TLE

СвежийSource: CelesTrak SupGP

Эпоха: Sep 15, 2026, 02:20 UTC

1 51860C 22022J   26258.09770833 -.00025728  00000+0 -76017-3 0  2585
2 51860  53.1593 228.6709 0001328  89.8025  64.5741 15.34402281    16

Отслеживайте STARLINK-3559 в реальном времени с AllMySat

Download on the App Store